Location: Rumah Dana
(3.1167°N, 113.0167°E)
Time: 03:28:44
(UTC+00:00)

CZ-3C R/B - Pass Details

Date: 20 January 2026
Orbit: 292 x 30800 km, 20.3° (Epoch: 11 February)

Event Time Altitude Azimuth Distance (km) Brightness Sun altitude
Rises 11:02:06 0° 266° (W) 3,614 7.3 -6.5°
Reaches altitude 10° 11:06:11 10° 288° (WNW) 1,580 4.5 -7.5°
Maximum altitude 11:08:06 16° 332° (NNW) 964 2.7 -7.9°
Drops below altitude 10° 11:09:31 10° 18° (NNE) 1,131 2.6 -8.2°
Enters shadow 11:10:05 - 29° (NNE) 1,328 2.8 -8.4°
